Вернуться в каталог

STARLINK-5210

АктивенСвязьVLEO
NORAD 54082·PAYLOAD·🇺🇸 United States

Запущен Oct 20, 2022 с Cape Canaveral Space Force Station

Loading…

Ближайшие Пролёты (ближайшие 24 часа)

TLE

СвежийSource: CelesTrak SupGP

Эпоха: Sep 14, 2026, 22:09 UTC

1 54082C 22136AH  26257.92340278  .00490110  00000+0  26250-1 0  2577
2 54082  53.1609 204.0873 0001431  91.7540 156.6047 15.14266481    12

Отслеживайте STARLINK-5210 в реальном времени с AllMySat

Download on the App Store